RUK1133 EGPH-EGHH

Flight info

Callsign RUK1133
Flight time 1h 17m
Altitude 23000
Route GOSAM P600 FENIK L612 ELBUS/N0370F250 L612 NAVSO/N0416F310 DCT ADZOP DCT EGTOC DCT KEPAD L151 PEPUL/N0357F230 Y322 BUGUP
Aircraft B738/M-SDE3FGILRWY/SB1

Departure

Time 2026-04-25 19:28
Airport Edinburgh Airport (EGPH)

Arrival

Time 2026-04-25 20:45
Airport Bournemouth Airport (EGHH)
Time Latitude Longitude Altitude Speed Heading
2026-04-25 18:50 55.94997 -3.36241 112 ft 0 kts 117°
2026-04-25 19:18 55.95001 -3.36254 114 ft 4 kts 117°
2026-04-25 19:18 55.95013 -3.36297 113 ft 4 kts 117°
2026-04-25 19:19 55.95024 -3.36339 112 ft 3 kts 117°
2026-04-25 19:19 55.95031 -3.36369 112 ft 4 kts 62°
2026-04-25 19:19 55.95015 -3.36399 111 ft 4 kts 56°
2026-04-25 19:19 55.95011 -3.36407 112 ft 3 kts 59°
2026-04-25 19:20 55.94988 -3.36475 111 ft 4 kts 59°
2026-04-25 19:20 55.94981 -3.36497 111 ft 1 kts 59°
2026-04-25 19:22 55.94981 -3.36494 111 ft 1 kts 59°
2026-04-25 19:22 55.95021 -3.36391 111 ft 7 kts 33°
2026-04-25 19:23 55.95065 -3.36411 115 ft 7 kts 308°
2026-04-25 19:23 55.95024 -3.36609 114 ft 13 kts 238°
2026-04-25 19:23 55.94972 -3.36762 113 ft 15 kts 239°
2026-04-25 19:24 55.94920 -3.36916 113 ft 14 kts 239°
2026-04-25 19:24 55.94870 -3.37062 113 ft 14 kts 239°
2026-04-25 19:24 55.94777 -3.37337 115 ft 13 kts 239°
2026-04-25 19:25 55.94689 -3.37599 112 ft 12 kts 238°
2026-04-25 19:25 55.94643 -3.37734 113 ft 15 kts 238°
2026-04-25 19:25 55.94574 -3.37934 115 ft 20 kts 238°
2026-04-25 19:26 55.94502 -3.38147 113 ft 20 kts 239°
2026-04-25 19:26 55.94432 -3.38354 115 ft 19 kts 239°
2026-04-25 19:26 55.94364 -3.38555 114 ft 19 kts 239°
2026-04-25 19:26 55.94305 -3.38730 114 ft 11 kts 238°
2026-04-25 19:27 55.94285 -3.38851 115 ft 11 kts 298°
2026-04-25 19:27 55.94322 -3.38905 115 ft 10 kts 329°
2026-04-25 19:27 55.94412 -3.38956 110 ft 11 kts 31°
2026-04-25 19:27 55.94458 -3.38847 113 ft 13 kts 58°
2026-04-25 19:28 55.94632 -3.38332 111 ft 86 kts 59°
2026-04-25 19:28 55.95055 -3.37080 128 ft 146 kts 59°
2026-04-25 19:28 55.95597 -3.35443 725 ft 158 kts 61°
2026-04-25 19:28 55.96301 -3.33729 1247 ft 187 kts 46°
2026-04-25 19:29 55.97301 -3.32194 1727 ft 195 kts 45°
2026-04-25 19:29 55.98314 -3.30580 2151 ft 195 kts 46°
2026-04-25 19:29 55.99338 -3.28971 2623 ft 200 kts 39°
2026-04-25 19:29 56.00667 -3.28064 3057 ft 208 kts
2026-04-25 19:30 56.02067 -3.28626 3537 ft 208 kts 327°
2026-04-25 19:30 56.03039 -3.30420 3988 ft 205 kts 295°
2026-04-25 19:30 56.03296 -3.32883 4459 ft 203 kts 264°
2026-04-25 19:30 56.03022 -3.35337 4968 ft 200 kts 256°
2026-04-25 19:31 56.02662 -3.37781 5407 ft 210 kts 256°
2026-04-25 19:31 56.02274 -3.40406 5881 ft 228 kts 256°
2026-04-25 19:31 56.01855 -3.43276 6375 ft 248 kts 255°
2026-04-25 19:31 56.01407 -3.46349 6863 ft 260 kts 256°
2026-04-25 19:32 56.00952 -3.49528 7299 ft 265 kts 256°
2026-04-25 19:32 56.00500 -3.52707 7748 ft 263 kts 255°
2026-04-25 19:32 56.00043 -3.55911 8199 ft 269 kts 255°
2026-04-25 19:32 55.99734 -3.58076 8510 ft 272 kts 255°
2026-04-25 19:33 55.99104 -3.62474 9122 ft 276 kts 255°
2026-04-25 19:33 55.98630 -3.65786 9590 ft 275 kts 255°
2026-04-25 19:33 55.98107 -3.69057 10050 ft 274 kts 245°
2026-04-25 19:33 55.96878 -3.71621 10487 ft 276 kts 212°
2026-04-25 19:34 55.95106 -3.72920 10948 ft 280 kts 194°
2026-04-25 19:34 55.93149 -3.73375 11364 ft 288 kts 185°
2026-04-25 19:34 55.91056 -3.73619 11537 ft 314 kts 184°
2026-04-25 19:34 55.88800 -3.73834 11961 ft 330 kts 184°
2026-04-25 19:35 55.86499 -3.74052 12762 ft 334 kts 184°
2026-04-25 19:35 55.84172 -3.74284 13612 ft 335 kts 185°
2026-04-25 19:35 55.81841 -3.74531 14420 ft 337 kts 185°
2026-04-25 19:35 55.79482 -3.74790 15145 ft 340 kts 185°
2026-04-25 19:36 55.77097 -3.75061 15737 ft 348 kts 185°
2026-04-25 19:36 55.74662 -3.75341 16471 ft 350 kts 185°
2026-04-25 19:36 55.72215 -3.75625 17143 ft 355 kts 185°
2026-04-25 19:36 55.69729 -3.75916 17734 ft 362 kts 185°
2026-04-25 19:37 55.67227 -3.76209 18370 ft 367 kts 186°
2026-04-25 19:37 55.64672 -3.76507 18986 ft 370 kts 186°
2026-04-25 19:37 55.62089 -3.76808 19571 ft 373 kts 186°
2026-04-25 19:37 55.59489 -3.77111 20208 ft 375 kts 186°
2026-04-25 19:38 55.56888 -3.77412 20970 ft 373 kts 186°
2026-04-25 19:38 55.54302 -3.77711 21753 ft 371 kts 186°
2026-04-25 19:38 55.51723 -3.78010 22490 ft 371 kts 186°
2026-04-25 19:38 55.49150 -3.78308 23186 ft 371 kts 186°
2026-04-25 19:39 55.46578 -3.78607 23890 ft 370 kts 186°
2026-04-25 19:39 55.44010 -3.78904 24448 ft 370 kts 186°
2026-04-25 19:39 55.41442 -3.79200 25041 ft 370 kts 186°
2026-04-25 19:39 55.38870 -3.79497 25203 ft 370 kts 186°
2026-04-25 19:40 55.36305 -3.79792 25230 ft 368 kts 186°
2026-04-25 19:40 55.33753 -3.80086 25229 ft 368 kts 186°
2026-04-25 19:40 55.31205 -3.80379 25240 ft 368 kts 186°
2026-04-25 19:40 55.28650 -3.80673 25237 ft 368 kts 186°
2026-04-25 19:41 55.26093 -3.80966 25240 ft 368 kts 186°
2026-04-25 19:41 55.23532 -3.81179 25234 ft 370 kts 181°
2026-04-25 19:41 55.20966 -3.80691 25238 ft 373 kts 171°
2026-04-25 19:41 55.20116 -3.80333 25229 ft 374 kts 167°
2026-04-25 19:42 55.15975 -3.78087 25237 ft 375 kts 165°
2026-04-25 19:42 55.13492 -3.76680 25238 ft 375 kts 165°
2026-04-25 19:42 55.11004 -3.75274 25235 ft 376 kts 165°
2026-04-25 19:42 55.08549 -3.73898 25237 ft 376 kts 165°
2026-04-25 19:43 55.06058 -3.72515 25236 ft 376 kts 165°
2026-04-25 19:43 55.03565 -3.71141 25241 ft 376 kts 165°
2026-04-25 19:43 55.01040 -3.69758 25241 ft 375 kts 165°
2026-04-25 19:43 54.98585 -3.68417 25237 ft 375 kts 165°
2026-04-25 19:44 54.96095 -3.67062 25237 ft 375 kts 165°
2026-04-25 19:44 54.93604 -3.65708 25225 ft 375 kts 165°
2026-04-25 19:44 54.91111 -3.64355 25235 ft 375 kts 165°
2026-04-25 19:44 54.88626 -3.63008 25234 ft 374 kts 165°
2026-04-25 19:45 54.86137 -3.61662 25233 ft 374 kts 165°
2026-04-25 19:45 54.83653 -3.60319 25237 ft 374 kts 165°
2026-04-25 19:45 54.81167 -3.58977 25238 ft 374 kts 165°
2026-04-25 19:45 54.78684 -3.57639 25235 ft 374 kts 165°
2026-04-25 19:46 54.76197 -3.56300 25236 ft 374 kts 165°
2026-04-25 19:46 54.73708 -3.54961 25234 ft 374 kts 166°
2026-04-25 19:46 54.71222 -3.53626 25233 ft 374 kts 166°
2026-04-25 19:46 54.68734 -3.52292 25224 ft 375 kts 166°
2026-04-25 19:47 54.66241 -3.50957 25231 ft 375 kts 166°
2026-04-25 19:47 54.63751 -3.49624 25233 ft 375 kts 166°
2026-04-25 19:47 54.61255 -3.48291 25231 ft 376 kts 166°
2026-04-25 19:47 54.58760 -3.46960 25230 ft 376 kts 166°
2026-04-25 19:48 54.56262 -3.45628 25229 ft 376 kts 166°
2026-04-25 19:48 54.53758 -3.44295 25232 ft 376 kts 166°
2026-04-25 19:48 54.51262 -3.42968 25239 ft 376 kts 166°
2026-04-25 19:48 54.48755 -3.41638 25233 ft 376 kts 166°
2026-04-25 19:49 54.46251 -3.40310 25230 ft 377 kts 166°
2026-04-25 19:49 54.45440 -3.39880 25228 ft 377 kts 166°
2026-04-25 19:49 54.41240 -3.37658 25224 ft 376 kts 166°
2026-04-25 19:49 54.38735 -3.36335 25229 ft 376 kts 166°
2026-04-25 19:50 54.33733 -3.33697 25230 ft 376 kts 166°
2026-04-25 19:50 54.31259 -3.32395 25231 ft 376 kts 166°
2026-04-25 19:50 54.28764 -3.31084 25230 ft 377 kts 166°
2026-04-25 19:51 54.26257 -3.29767 25226 ft 377 kts 166°
2026-04-25 19:51 54.23753 -3.28454 25224 ft 376 kts 166°
2026-04-25 19:51 54.21253 -3.27145 25228 ft 376 kts 166°
2026-04-25 19:51 54.18749 -3.25865 25220 ft 375 kts 168°
2026-04-25 19:52 54.16193 -3.25126 25235 ft 371 kts 177°
2026-04-25 19:52 54.13620 -3.24744 25229 ft 371 kts 178°
2026-04-25 19:52 54.11043 -3.24388 25235 ft 372 kts 176°
2026-04-25 19:52 54.08500 -3.23487 25222 ft 377 kts 163°
2026-04-25 19:53 54.06045 -3.21896 25235 ft 378 kts 161°
2026-04-25 19:53 54.03602 -3.20231 25217 ft 378 kts 161°
2026-04-25 19:53 54.01158 -3.18556 25224 ft 379 kts 161°
2026-04-25 19:53 53.98714 -3.16891 25219 ft 379 kts 161°
2026-04-25 19:54 53.96261 -3.15235 25217 ft 379 kts 161°
2026-04-25 19:54 53.93806 -3.13590 25204 ft 379 kts 161°
2026-04-25 19:54 53.91352 -3.11956 25213 ft 379 kts 161°
2026-04-25 19:54 53.90523 -3.11406 25217 ft 379 kts 161°
2026-04-25 19:55 53.86428 -3.08698 25212 ft 380 kts 161°
2026-04-25 19:55 53.83965 -3.07073 25211 ft 380 kts 161°
2026-04-25 19:55 53.81498 -3.05450 25215 ft 380 kts 161°
2026-04-25 19:55 53.79033 -3.03829 25214 ft 381 kts 161°
2026-04-25 19:56 53.76560 -3.02206 25214 ft 381 kts 161°
2026-04-25 19:56 53.74092 -3.00588 25218 ft 380 kts 161°
2026-04-25 19:56 53.71626 -2.98973 25215 ft 380 kts 161°
2026-04-25 19:56 53.69156 -2.97358 25197 ft 380 kts 161°
2026-04-25 19:57 53.66687 -2.95745 25216 ft 380 kts 161°
2026-04-25 19:57 53.64221 -2.94136 25220 ft 380 kts 161°
2026-04-25 19:57 53.61756 -2.92531 25218 ft 380 kts 161°
2026-04-25 19:57 53.59285 -2.90923 25222 ft 380 kts 161°
2026-04-25 19:58 53.56818 -2.89320 25221 ft 381 kts 161°
2026-04-25 19:58 53.54342 -2.87713 25224 ft 381 kts 161°
2026-04-25 19:58 53.51871 -2.86111 25228 ft 381 kts 161°
2026-04-25 19:58 53.49395 -2.84507 25229 ft 381 kts 161°
2026-04-25 19:59 53.46925 -2.82910 25230 ft 381 kts 161°
2026-04-25 19:59 53.44452 -2.81313 25234 ft 381 kts 161°
2026-04-25 19:59 53.41978 -2.79717 25230 ft 381 kts 161°
2026-04-25 19:59 53.39506 -2.78125 25226 ft 381 kts 161°
2026-04-25 20:00 53.37033 -2.76533 25226 ft 381 kts 161°
2026-04-25 20:00 53.36230 -2.76017 25226 ft 381 kts 161°
2026-04-25 20:00 53.32086 -2.73356 25229 ft 381 kts 161°
2026-04-25 20:00 53.29612 -2.71770 25226 ft 381 kts 161°
2026-04-25 20:01 53.24693 -2.68623 25233 ft 381 kts 161°
2026-04-25 20:01 53.22221 -2.67044 25226 ft 381 kts 161°
2026-04-25 20:01 53.19742 -2.65463 25225 ft 381 kts 161°
2026-04-25 20:02 53.17270 -2.63888 25226 ft 381 kts 161°
2026-04-25 20:02 53.14801 -2.62317 25232 ft 380 kts 161°
2026-04-25 20:02 53.12327 -2.60745 25232 ft 381 kts 161°
2026-04-25 20:02 53.09851 -2.59173 25225 ft 381 kts 161°
2026-04-25 20:03 53.07373 -2.57603 25222 ft 381 kts 161°
2026-04-25 20:03 53.04894 -2.56033 25221 ft 381 kts 162°
2026-04-25 20:03 53.02408 -2.54461 25220 ft 381 kts 162°
2026-04-25 20:03 52.99936 -2.52899 25220 ft 382 kts 162°
2026-04-25 20:04 52.97453 -2.51333 25205 ft 382 kts 161°
2026-04-25 20:04 52.94967 -2.49767 25211 ft 382 kts 162°
2026-04-25 20:04 52.92477 -2.48200 25216 ft 383 kts 162°
2026-04-25 20:04 52.89985 -2.46634 25217 ft 383 kts 162°
2026-04-25 20:05 52.87489 -2.45067 25218 ft 384 kts 162°
2026-04-25 20:05 52.84987 -2.43498 25215 ft 384 kts 162°
2026-04-25 20:05 52.82487 -2.41932 25214 ft 385 kts 162°
2026-04-25 20:05 52.79984 -2.40366 25216 ft 385 kts 162°
2026-04-25 20:06 52.77479 -2.38801 25216 ft 385 kts 162°
2026-04-25 20:06 52.74976 -2.37239 25217 ft 385 kts 162°
2026-04-25 20:06 52.72475 -2.35679 25212 ft 385 kts 162°
2026-04-25 20:06 52.69971 -2.34121 25218 ft 384 kts 162°
2026-04-25 20:07 52.67471 -2.32559 25226 ft 384 kts 160°
2026-04-25 20:07 52.65087 -2.30612 25217 ft 387 kts 149°
2026-04-25 20:07 52.63583 -2.28990 25231 ft 387 kts 148°
2026-04-25 20:07 52.61356 -2.26501 25222 ft 387 kts 147°
2026-04-25 20:08 52.59132 -2.23997 25220 ft 387 kts 147°
2026-04-25 20:08 52.56900 -2.21502 25220 ft 387 kts 148°
2026-04-25 20:08 52.53939 -2.18225 25227 ft 387 kts 148°
2026-04-25 20:08 52.51728 -2.15795 25167 ft 379 kts 148°
2026-04-25 20:09 52.50251 -2.14177 24972 ft 376 kts 148°
2026-04-25 20:09 52.48087 -2.11813 24745 ft 372 kts 148°
2026-04-25 20:09 52.45940 -2.09471 24442 ft 369 kts 148°
2026-04-25 20:09 52.43808 -2.07149 24056 ft 369 kts 148°
2026-04-25 20:10 52.41669 -2.04822 23618 ft 369 kts 148°
2026-04-25 20:10 52.39480 -2.02620 23130 ft 369 kts 153°
2026-04-25 20:10 52.37251 -2.00676 22655 ft 368 kts 154°
2026-04-25 20:10 52.34967 -1.98783 22188 ft 368 kts 155°
2026-04-25 20:11 52.32681 -1.96906 21729 ft 368 kts 155°
2026-04-25 20:11 52.30397 -1.95021 21268 ft 368 kts 155°
2026-04-25 20:11 52.28119 -1.93125 20817 ft 367 kts 155°
2026-04-25 20:11 52.25845 -1.91219 20369 ft 367 kts 154°
2026-04-25 20:12 52.23606 -1.89334 20238 ft 356 kts 154°
2026-04-25 20:12 52.21444 -1.87508 20214 ft 344 kts 154°
2026-04-25 20:12 52.19311 -1.85706 20056 ft 340 kts 154°
2026-04-25 20:12 52.17917 -1.84531 19820 ft 341 kts 154°
2026-04-25 20:13 52.15133 -1.82186 19403 ft 339 kts 154°
2026-04-25 20:13 52.13040 -1.80425 19067 ft 337 kts 154°
2026-04-25 20:13 52.10961 -1.78676 18737 ft 336 kts 155°
2026-04-25 20:13 52.08889 -1.76935 18405 ft 335 kts 155°
2026-04-25 20:14 52.06825 -1.75202 18027 ft 333 kts 154°
2026-04-25 20:14 52.04763 -1.73473 17606 ft 334 kts 154°
2026-04-25 20:14 52.02702 -1.71747 17176 ft 334 kts 154°
2026-04-25 20:14 52.00637 -1.70019 16767 ft 334 kts 154°
2026-04-25 20:15 51.98588 -1.68305 16342 ft 329 kts 154°
2026-04-25 20:15 51.96576 -1.66624 15931 ft 322 kts 154°
2026-04-25 20:15 51.94605 -1.64978 15527 ft 315 kts 154°
2026-04-25 20:15 51.92674 -1.63368 15139 ft 310 kts 154°
2026-04-25 20:16 51.90774 -1.61786 14737 ft 304 kts 154°
2026-04-25 20:16 51.88909 -1.60234 14351 ft 299 kts 154°
2026-04-25 20:16 51.87073 -1.58708 13965 ft 295 kts 154°
2026-04-25 20:16 51.85261 -1.57203 13534 ft 290 kts 154°
2026-04-25 20:17 51.83474 -1.55721 13113 ft 287 kts 154°
2026-04-25 20:17 51.81709 -1.54258 12698 ft 283 kts 154°
2026-04-25 20:17 51.79968 -1.52816 12285 ft 280 kts 154°
2026-04-25 20:17 51.78246 -1.51391 11876 ft 277 kts 154°
2026-04-25 20:18 51.76544 -1.49983 11481 ft 274 kts 153°
2026-04-25 20:18 51.74853 -1.48585 11253 ft 275 kts 153°
2026-04-25 20:18 51.73129 -1.47163 11234 ft 279 kts 153°
2026-04-25 20:18 51.71433 -1.45764 11214 ft 276 kts 153°
2026-04-25 20:19 51.69699 -1.44337 11036 ft 278 kts 154°
2026-04-25 20:19 51.67950 -1.43107 10769 ft 278 kts 159°
2026-04-25 20:19 51.66124 -1.42028 10521 ft 280 kts 161°
2026-04-25 20:19 51.64290 -1.40981 10256 ft 278 kts 161°
2026-04-25 20:20 51.62473 -1.39943 9967 ft 277 kts 160°
2026-04-25 20:20 51.60665 -1.38902 9686 ft 275 kts 160°
2026-04-25 20:20 51.58867 -1.37860 9403 ft 274 kts 160°
2026-04-25 20:20 51.57091 -1.36826 9246 ft 267 kts 160°
2026-04-25 20:21 51.55384 -1.35829 9204 ft 256 kts 160°
2026-04-25 20:21 51.53750 -1.34873 9194 ft 244 kts 160°
2026-04-25 20:21 51.52198 -1.33965 9192 ft 233 kts 160°
2026-04-25 20:21 51.50682 -1.33078 9207 ft 231 kts 160°
2026-04-25 20:22 51.49163 -1.32189 9227 ft 233 kts 160°
2026-04-25 20:22 51.48154 -1.31599 9227 ft 234 kts 160°
2026-04-25 20:22 51.46105 -1.30401 9227 ft 235 kts 160°
2026-04-25 20:22 51.44569 -1.29503 9225 ft 236 kts 160°
2026-04-25 20:23 51.43026 -1.28602 9223 ft 236 kts 160°
2026-04-25 20:23 51.41484 -1.27701 9223 ft 236 kts 160°
2026-04-25 20:23 51.39942 -1.26801 9217 ft 236 kts 160°
2026-04-25 20:23 51.38404 -1.25905 9215 ft 235 kts 160°
2026-04-25 20:24 51.36866 -1.25010 9216 ft 234 kts 160°
2026-04-25 20:24 51.35336 -1.24120 9215 ft 233 kts 160°
2026-04-25 20:24 51.33805 -1.23283 9209 ft 232 kts 169°
2026-04-25 20:24 51.32208 -1.23242 9230 ft 229 kts 185°
2026-04-25 20:25 51.30614 -1.23423 9219 ft 229 kts 184°
2026-04-25 20:25 51.29022 -1.23579 9219 ft 230 kts 184°
2026-04-25 20:25 51.27426 -1.23724 9218 ft 230 kts 184°
2026-04-25 20:25 51.25839 -1.23861 9220 ft 230 kts 184°
2026-04-25 20:26 51.24221 -1.23995 9221 ft 231 kts 184°
2026-04-25 20:26 51.22615 -1.24127 9219 ft 231 kts 184°
2026-04-25 20:26 51.21005 -1.24258 9220 ft 232 kts 184°
2026-04-25 20:26 51.19397 -1.24420 9218 ft 232 kts 189°
2026-04-25 20:27 51.17824 -1.24975 9226 ft 231 kts 195°
2026-04-25 20:27 51.16266 -1.25663 9218 ft 232 kts 197°
2026-04-25 20:27 51.14731 -1.26350 9219 ft 232 kts 196°
2026-04-25 20:27 51.13171 -1.27038 9218 ft 233 kts 196°
2026-04-25 20:28 51.11610 -1.27718 9231 ft 233 kts 196°
2026-04-25 20:28 51.10048 -1.28390 9237 ft 233 kts 195°
2026-04-25 20:28 51.08484 -1.29057 9235 ft 232 kts 195°
2026-04-25 20:28 51.06922 -1.29720 9239 ft 232 kts 195°
2026-04-25 20:29 51.05363 -1.30379 9238 ft 232 kts 195°
2026-04-25 20:29 51.03801 -1.31037 9238 ft 232 kts 195°
2026-04-25 20:29 51.02241 -1.31693 9231 ft 232 kts 195°
2026-04-25 20:29 51.00651 -1.32360 8942 ft 240 kts 195°
2026-04-25 20:30 50.99582 -1.32808 8769 ft 240 kts 195°
2026-04-25 20:30 50.97423 -1.33711 8400 ft 240 kts 195°
2026-04-25 20:30 50.95809 -1.34385 8123 ft 240 kts 195°
2026-04-25 20:30 50.94193 -1.35064 7841 ft 240 kts 195°
2026-04-25 20:31 50.92580 -1.35749 7586 ft 240 kts 195°
2026-04-25 20:31 50.90965 -1.36442 7316 ft 240 kts 195°
2026-04-25 20:31 50.89352 -1.37139 7053 ft 241 kts 195°
2026-04-25 20:31 50.87736 -1.37842 6789 ft 241 kts 195°
2026-04-25 20:32 50.86123 -1.38550 6513 ft 241 kts 195°
2026-04-25 20:32 50.84509 -1.39268 6234 ft 241 kts 195°
2026-04-25 20:32 50.82894 -1.40000 5954 ft 241 kts 195°
2026-04-25 20:32 50.81280 -1.40742 5686 ft 241 kts 195°
2026-04-25 20:33 50.79693 -1.41478 5438 ft 240 kts 194°
2026-04-25 20:33 50.78054 -1.41623 5161 ft 237 kts 164°
2026-04-25 20:33 50.76626 -1.40388 4912 ft 231 kts 131°
2026-04-25 20:33 50.76039 -1.39012 4732 ft 227 kts 110°
2026-04-25 20:34 50.76009 -1.35825 4395 ft 222 kts 66°
2026-04-25 20:34 50.76956 -1.33949 4149 ft 221 kts 33°
2026-04-25 20:34 50.78385 -1.33234 3936 ft 216 kts
2026-04-25 20:34 50.79870 -1.33210 3681 ft 211 kts
2026-04-25 20:35 50.81326 -1.33250 3420 ft 207 kts
2026-04-25 20:35 50.82750 -1.33298 3159 ft 203 kts
2026-04-25 20:35 50.84127 -1.33349 3037 ft 194 kts
2026-04-25 20:35 50.85465 -1.33546 2977 ft 196 kts 343°
2026-04-25 20:36 50.86543 -1.34827 2999 ft 199 kts 305°
2026-04-25 20:36 50.86949 -1.36920 3005 ft 204 kts 268°
2026-04-25 20:36 50.86405 -1.38930 2988 ft 203 kts 219°
2026-04-25 20:36 50.85118 -1.39644 3002 ft 200 kts 171°
2026-04-25 20:37 50.83957 -1.38630 2999 ft 193 kts 122°
2026-04-25 20:37 50.83696 -1.36633 3015 ft 189 kts 78°
2026-04-25 20:37 50.84048 -1.34610 2980 ft 193 kts 64°
2026-04-25 20:37 50.84981 -1.33100 2801 ft 197 kts 27°
2026-04-25 20:38 50.86271 -1.32657 2738 ft 191 kts 359°
2026-04-25 20:38 50.87548 -1.33248 2707 ft 193 kts 327°
2026-04-25 20:38 50.88392 -1.34868 2572 ft 198 kts 293°
2026-04-25 20:38 50.88587 -1.36985 2636 ft 198 kts 268°
2026-04-25 20:39 50.88253 -1.39177 3132 ft 209 kts 246°
2026-04-25 20:39 50.87583 -1.41097 3342 ft 192 kts 237°
2026-04-25 20:39 50.86864 -1.42835 3552 ft 186 kts 235°
2026-04-25 20:39 50.86379 -1.43946 3526 ft 185 kts 235°
2026-04-25 20:40 50.85458 -1.46208 3448 ft 182 kts 239°
2026-04-25 20:40 50.84868 -1.48005 3284 ft 186 kts 244°
2026-04-25 20:40 50.84322 -1.49869 3227 ft 186 kts 244°
2026-04-25 20:40 50.83764 -1.51722 3176 ft 187 kts 249°
2026-04-25 20:41 50.83311 -1.53662 3161 ft 189 kts 250°
2026-04-25 20:41 50.82874 -1.55652 3189 ft 196 kts 252°
2026-04-25 20:41 50.82458 -1.57723 3233 ft 195 kts 252°
2026-04-25 20:41 50.82069 -1.59729 3195 ft 185 kts 253°
2026-04-25 20:42 50.81726 -1.61671 3134 ft 184 kts 255°
2026-04-25 20:42 50.81392 -1.63658 3081 ft 187 kts 256°
2026-04-25 20:42 50.81083 -1.65583 2898 ft 176 kts 256°
2026-04-25 20:42 50.80775 -1.67464 2679 ft 176 kts 255°
2026-04-25 20:43 50.80465 -1.69288 2454 ft 167 kts 255°
2026-04-25 20:43 50.80173 -1.70946 2349 ft 144 kts 254°
2026-04-25 20:43 50.79928 -1.72418 2025 ft 138 kts 255°
2026-04-25 20:43 50.79694 -1.73874 1655 ft 135 kts 255°
2026-04-25 20:44 50.79460 -1.75337 1290 ft 141 kts 256°
2026-04-25 20:44 50.79230 -1.76857 1007 ft 142 kts 256°
2026-04-25 20:44 50.78991 -1.78341 744 ft 136 kts 254°
2026-04-25 20:44 50.78744 -1.79782 482 ft 136 kts 255°
2026-04-25 20:45 50.78509 -1.81204 270 ft 131 kts 255°
2026-04-25 20:45 50.78291 -1.82544 95 ft 122 kts 255°
2026-04-25 20:45 50.78070 -1.83888 46 ft 126 kts 255°
2026-04-25 20:45 50.77912 -1.84839 44 ft 38 kts 256°
2026-04-25 20:46 50.77873 -1.85065 43 ft 10 kts 238°
2026-04-25 20:46 50.77846 -1.85075 43 ft 5 kts 159°
2026-04-25 20:46 50.77805 -1.84988 40 ft 13 kts 119°
2026-04-25 20:46 50.77761 -1.84863 41 ft 13 kts 119°
2026-04-25 20:47 50.77726 -1.84738 42 ft 13 kts 111°
2026-04-25 20:47 50.77713 -1.84602 43 ft 12 kts 98°
2026-04-25 20:47 50.77694 -1.84468 41 ft 13 kts 104°
2026-04-25 20:47 50.77664 -1.84315 40 ft 16 kts 110°
2026-04-25 20:48 50.77629 -1.84146 43 ft 16 kts 104°
2026-04-25 20:48 50.77602 -1.83975 44 ft 16 kts 103°
2026-04-25 20:48 50.77581 -1.83810 44 ft 15 kts 97°
2026-04-25 20:48 50.77576 -1.83648 45 ft 14 kts 89°
2026-04-25 20:49 50.77589 -1.83527 45 ft 9 kts 59°
2026-04-25 20:49 50.77623 -1.83490 45 ft 3 kts 21°
2026-04-25 20:49 50.77644 -1.83479 43 ft 3 kts 12°
2026-04-25 20:49 50.77672 -1.83478 45 ft 6 kts
2026-04-25 20:50 50.77724 -1.83470 45 ft 9 kts
2026-04-25 20:50 50.77780 -1.83468 45 ft 7 kts 357°
2026-04-25 20:50 50.77805 -1.83417 45 ft 5 kts 83°
2026-04-25 20:50 50.77806 -1.83386 45 ft 2 kts 86°
2026-04-25 20:51 50.77807 -1.83377 45 ft 0 kts 86°